sat.trackr.live / text

‹ back to catalog

STARLINK-32392

NORAD 61214 · 2024-171Q

PAYLOAD ACTIVE UNKNOWN

§ Identity

Operator
Country
US
Launch date
2024-09-20
Launch site
AFWTR
Launch vehicle
Mass (kg)
RCS (m²)

Purposes: comms

External: N2YO · Heavens-Above · Gunter

§ Orbital elements

Epoch: 2026-09-21T21:07:31.792512Z

Period
93.85 min
Inclination
53.1593°
Eccentricity
0.0001405
Mean motion
15.34382945 rev/d
Perigee alt
461.8 km
Apogee alt
463.7 km
Semi-major
6,840.9 km
B*
4.9149e-6
RAAN
127.0809°
Arg perigee
100.4271°
Mean anomaly
259.6890°
Rev number
11,246

§ Raw data

STARLINK-323921 61214U 24171Q   26264.88022908 -.00000210  00000+0  49149-5 0  99912 61214  53.1593 127.0809 0001405 100.4271 259.6890 15.34382945112461

JSON: /api/v1/satellites/61214 · /tle

For live sub-satellite position, see the globe view (requires WebGL).

§ Visibility from observer

Set your observer location to see the next 7 days of passes ≥ 10°. The values pass through the URL so the page stays shareable.

No JS? Fill the form by hand. The geolocation button needs JavaScript.